Погода в Котельниче

Погода в Котельниче : погода сейчас, прогноз погоды и архив. Всё, что Вы хотите узнать о погоде в Котельниче!

Хотите узнать прогноз погоды в Котельниче? Тогда Вам сюда: Погода в Котельниче

Поиск расширенной информации на нашем сайте:

Полезная информация: Далее

Другие новости

Новости СМИ2

Главная страница сайта

Новости сайта

03.07.2017

Напоминаем, что на нашем специализированном сайте Метеоцентр.Азия вы можете получить высокодетализированные автоматические прогнозы погоды по пунктам России, СНГ и мира в авиационном формате (включающие направление и скорость ветра, видимость, явления погоды, количество и форму облачности, нижнюю и верхнюю границу облачности).

Рекомендуем: участок Новорижское шоссе

Погода в Котельниче - сегодня

Время (UTC), дата Ветер
(°,м/с) 
Видим.   Явления Облачность Т
(°С)
Тd
(°С)
f(%) Тe
(°С)
Pmin
(гПа)
dP
(гПа)
Po
(мм)
O2
(г/м3)
Тmin Tmax R s Состояние
почвы
15 10.12.17 150 (ЮВ) 2-4{05}  10 км    10/10 570 м 
[Sc]
-8.2 -10.1 86 -10  1024.6  0.9  756  315    -7.4  0.0     
18 10.12.17 150 (ЮВ) 2-4{06}  10 км    10/10 660 м 
[Sc]
-8.6 -11 83 -10  1024.6  756  316           
21 10.12.17 150 (ЮВ) 2-3{06}  10 км    3/0 средняя 
[Ac trans]
-10.2 -13 80 -12  1025.2  0.5  756  318           
00 11.12.17 150 (ЮВ) 2-4{06}  10 км    ясно 
-13.4 -16.1 80 -16  1026  0.5  757  322           
03 11.12.17 120 (ЮВ) 3-4{05}  10 км    10/10 570 м 
[Sc]
-13 -15.7 80 -16  1025.6  -0.3  757  321  -13.9      19  равномерный
сухой снег
100% 
06 11.12.17 120 (ЮВ) 2-3{05}  20000 м    3/0 средняя 
[Ac trans]
-11.4 -14.2 80 -13  1025.5  -0.1  756  319           
09 11.12.17 150 (ЮВ) 3-6{06}  20000 м    6/0 средняя, верхняя 
[Ac trans|Ci fib]
-7.7 -10.3 82 -10  1025.2  756  315           
12 11.12.17 150 (ЮВ) 4-6{07}  11000 м    10/10 600 м 
[Sc]
-6.4 -9.2 80 -10  1024  -1.1  756  313           
15 11.12.17 150 (ЮВ) 4-6{08}  4000 м  слаб. ливневой снег  10/10 480 м кучево-дожд. 
[Cb cap]
-6.1 -8 86 -9  1023.4  -0.5  755  312    -6  0.6     
18 11.12.17 150 (ЮВ) 4-6{08}  4000 м  слаб. ливневой снег  10/10 450 м кучево-дожд. 
[Cb cap]
-6.4 -8.3 86 -10  1023  -0.4  755  312           
21 11.12.17 140 (ЮВ) 3-6{07}  10 км  {ливн. осадки}  10/10 360 м 
[Sc]
-6 -7.9 86 -9  1022.5  -0.5  755  312           
00 12.12.17 150 (ЮВ) 4-6{06}  4000 м  слаб. ливневой снег  10/10 400 м кучево-дожд. 
[Cb cap]
-6.1 -8 86 -9  1022.1  -0.4  754  312           
03 12.12.17 150 (ЮВ) 3-6{07}  10 км  {ливн. осадки}  10/10 400 м 
[Sc]
-6.4 -8.7 84 -9  1022.6  0.5  755  312  -6.5    19  равномерный
сухой снег
100% 
06 12.12.17 150 (ЮВ) 3-5{07}  8000 м  слаб. ливневой снег  10/10 420 м кучево-дожд. 
[Cb cap]
-6.6 -8.2 88 -9  1023.7  1.1  755  313  -6.7         
09 12.12.17 150 (ЮВ) 3-5{06}  13000 м  {ливн. осадки}  10/10 480 м кучево-дожд. 
[Cb cap]
-5.7 -7.5 87 -8  1024.2  0.4  756  312           
12 12.12.17 150 (ЮВ) 3-5{06}  15000 м  {ливн. осадки}  10/10 480 м 
[Sc]
-5 -6.7 88 -7  1024.3  0.2  756  311           
15 12.12.17 140 (ЮВ) 3-4{07}  10 км    10/10 500 м 
[Sc]
-5.1 -7.2 85 -7  1025.2  0.9  757  311    -5  0.2     
18 12.12.17 110 (В) 3-4{05}  10 км    10/10 500 м 
[Sc]
-5.1 -6.8 88 -7  1025  -0.2  756  311           
21 12.12.17 130 (ЮВ) 3-4{06}  10 км    10/10 500 м 
[Sc]
-4.8 -6.5 88 -7  1024.8  -0.2  756  311           
00 13.12.17 160 (Ю) 3-5{08}  10 км    10/10 480 м 
[Sc]
-3.4 -5.1 88 -6  1023.6  -1.1  755  309           
03 13.12.17 160 (Ю) 4-8{09}  10 км  позёмок  10/10 500 м 
[Sc]
-2.8 -4.8 86 -6  1021.7  -1.8  754  308  -5.4      19  равномерный
сухой снег
100% 
06 13.12.17 160 (Ю) 5-9{10}  20000 м  позёмок  10/10 540 м 
[Sc]
-2.4 -4.3 87 -6  1020.8  -0.9  753  307           
09 13.12.17 170 (Ю) 6-12{12}  20000 м  позёмок  10/10 570 м 
[Sc]
-2.1 -4.6 83 -6  1019.8  -1  753  306           
12 13.12.17 170 (Ю) 6-12{13}  6000 м  слаб. снег  10/10 330 м 
[Frnb|Ns]
-2.6 -4.5 87 -7  1017.9  -1.8  751  306           
15 13.12.17 170 (Ю) 5-10{14}  4000 м  слаб. снег  10/10 400 м 
[Frnb|Ns]
-2.7 -4.6 87 -6  1016.2  -1.7  750  306    -2     
Время (UTC), дата Ветер
(°,м/с) 
Видим.   Явления Облачность Т
(°С)
Тd
(°С)
f(%) Тe
(°С)
Pmin
(гПа)
dP
(гПа)
Po
(мм)
O2
(г/м3)
Тmin Tmax R s Состояние
почвы

Для получения пояснительной информации подведите курсор к названию столбца.

ПОГОДА в Котельниче - архив

Всё, что Вы хотите узнать о погоде в Котельниче - удобно и подробно!

Выберите нужную дату (начиная с 1 января 2015* года) и нажмите кнопку "Найти".
Будут отображены архивные сводки погоды по пункту Котельнич, начиная с указанной даты.


Отображать данные в формате CSV (для использования в таблицах Excel)


Внимание! Наш архив погоды предназначен исключительно для личного некоммерческого использования в познавательных целях. Если Вам необходимы официальные справки о состоянии погоды (для производственных, юридических, коммерческих и т.п. целей), обращайтесь в органы Росгидромета.

*Примечание: данная дата относится к архиву по метеостанциям СССР (Россия, СНГ, Балтия).
Архив по метеостанциям Зарубежной Европы и Азии (кроме Китая) хранится 10 дней, по другим регионам земного шара (Китай, Африка, Америка, Австралия, Океания) - 1 день.

Котельнич - район местоположения метеостанции


Название, широта, долгота, высота метеостанции:
Котельнич 58.3°ш. 48.3°д. 127 м над ур. моря [Российская Федерация]

Дополнительная информация

В oтличие oт бoльшинства пoгoдных сайтoв мы публикуем пoдрoбную метеoинфoрмацию в детальнoм прoфессиoнальнoм фoрмате.

Характеристики температуры и влажнoсти вoздуха измеряются на высoте 2 м в тени вдали oт зданий и деревьев.
Скoрoсть ветра измеряется на высoте 10 м (на урoвне рoста челoвека скoрoсть ветра ниже в 1.5-2 раза). Если метеoстанция нахoдится в гoрoде или в лесу, тo скoрoсть ветра занижена на 2-4 м/с пo сравнению с oткрытым местoм. Скoрoсть ветра над акватoриями крупных рек и oзёр, а также на вершинах хoлмoв на 2-5 м/с выше, чем в oбычных услoвиях.
Атмoсфернoе давление в разных тoчках местнoсти мoжет значительнo oтличаться oт давления на метеoстанции, в зависимoсти oт услoвий рельефа (при пoдъёме на 10 м давление пoнижается примернo на 1 мм рт.ст.).